{"data":{"norad_id":53177,"epoch":"2026-09-19T19:49:05.569824Z","epoch_age_seconds":130506,"freshness":"FRESH","line1":"1 53177U 22083AX  26262.82575891 -.00063573  00000+0 -18691-2 0  9993","line2":"2 53177  53.1608 335.2177 0001457  53.0783 307.0353 15.34686421231174","mean_motion":15.34686421,"eccentricity":0.0001457,"inclination_deg":53.1608,"raan_deg":335.2177,"arg_perigee_deg":53.0783,"mean_anomaly_deg":307.0353,"bstar":-0.0018691,"rev_number":23117,"period_min":93.830243123002,"perigee_km":460.85548263014,"apogee_km":462.84865544485,"semimajor_km":6839.9890690375,"source":"CELESTRAK","updated_at":"2026-09-20T09:00:40.187126Z"}}